Вернуться в каталог

STARLINK-38264

АктивенСвязьSSO
NORAD 100308·PAYLOAD·🇺🇸 United States

Запущен Aug 12, 2026 с Vandenberg Space Force Base

Loading…

Ближайшие Пролёты (ближайшие 24 часа)

TLE

СвежийSource: Space-Track

Эпоха: Sep 14, 2026, 14:23 UTC

1 A0308U 26184H   26257.59934642  .00003323  00000-0  10521-3 0  9999
2 A0308  97.2828 122.7658 0002127 102.3222 257.8259 15.33448340  6452

Отслеживайте STARLINK-38264 в реальном времени с AllMySat

Download on the App Store